Regional Weather Roundup
Issued by NWS Pendleton, OR

Home | Current Version | Previous Version | Text Only | Print | Product List | Glossary On
Versions: 1 2 3 4 5 6 7 8 9 10 11 12 13 14 15 16 17 18 19 20 21 22 23 24 25 26 27 28 29 30 31 32 33 34 35 36 37 38 39 40 41 42 43 44 45 46 47 48 49 50
743
ASUS46 KPDT 240225
RWRPDT
PENDLETON REGIONAL WEATHER ROUNDUP
NATIONAL WEATHER SERVICE PENDLETON OREGON
700 PM PDT SUN APR 23 2017

NOTE: FAIR INDICATES FEW OR NO CLOUDS BELOW 12,000 FEET WITH NO
SIGNIFICANT WEATHER AND/OR OBSTRUCTIONS TO VISIBILITY.

# INDICATES UNOFFICIAL STATION AND DATA

WAZ520-240310-
EAST SLOPES OF WASHINGTON CASCADES

CITY            SKY/WX      TMP DP  RH  WIND    PRES   REMARKS
#CLE ELUM HS    N/A         44  41  89  CALM    29.76F
#CLE ELUM LAKE  N/A         40  38  92  CALM    29.77S
#GLENWOOD       N/A         44  40  86  SW7     29.83F
#MANASTASH CYN  N/A         46  46  100 CALM    29.75F
#NELSON 3SW     N/A         38  36  92  CALM    30.01F
#NILE           N/A         48  36  63  W2      29.03S
#TEANAWAY 4NE   N/A         43  42  96  W2      N/A
#TROUT LAKE 1NE N/A         43  40  89  SW6     29.85F
#TROUT LAKE 1E  N/A         43  41  93  CALM    29.85F
$$

WAZ521-240310-
SIMCOE HIGHLANDS

CITY            SKY/WX      TMP DP  RH  WIND    PRES   REMARKS
#BICKLETON HS   N/A         44  37  76  SW26    29.82F WCI 35
#CENTERVILLE 1SWN/A         47  39  74  W12     29.79F WCI 42
#GOLDENDALE 1NE N/A         48  30  49  SW7     N/A
#GOLDENDALE 4W  N/A         48  16  27  W16     29.87F WCI 42
#GOODNOE HILLS  N/A         51  40  66  W18     N/A
#LYLE 6NE       N/A         47  41  79  W7      29.81F
#PITT 4SE       N/A         44  39  82  W10     29.86F
$$

WAZ026-240310-
KITTITAS VALLEY

CITY            SKY/WX      TMP DP  RH  WIND    PRES   REMARKS
ELLENSBURG AP   CLOUDY      50  41  71  NW15    29.76F
#ELLENSBURG CWU N/A         47  40  76  NW10    29.70F
#ELLENSBURG 3NE N/A         46  41  83  N3      27.85F
#ELLENSBURG 1E  N/A         47  N/A N/A NW1     N/A
#ELLENSBURG 13S N/A         51  41  68  CALM    N/A
#KITTITAS 4N    N/A         46  41  83  W7      29.78F
#KITTITAS 3S    N/A         48  43  83  NW3     29.75S
#THORP 6N       N/A         43  39  86  NW6     29.80F
$$

WAZ027-240310-
YAKIMA VALLEY

CITY            SKY/WX      TMP DP  RH  WIND    PRES   REMARKS
SUNNYSIDE AP    CLOUDY      53  37  54  SW13    29.79F
YAKIMA AIRPORT  PTCLDY      56  38  51  SW9     29.76F
YAKIMA-VAGABOND CLOUDY      53  37  54  SW12    29.74S
#DONALD 2NE     N/A         53  19  26  SW3     28.63F
#GRANDVIEW      N/A         55  36  49  W2      29.80F
#MABTON         N/A         55  41  59  W3      29.79F
#MOXEE 2E       N/A         51   0  12  SW12    29.71F
#NACHES 2SW     N/A         51  38  61  SW5     29.82S
#TERRACE HTS    N/A         52  39  61  CALM    29.73F
#TOPPENISH      N/A         54  38  55  CALM    29.70F
#WEST VALLEY    N/A         55  37  51  S3      29.74S
#W YAKIMA       N/A         54  38  55  W1      29.75S
#WHITE SWAN 5E  N/A         53  39  59  SW3     29.78S
#WILEY CITY 3W  N/A         53  30  41  W5      29.72F
$$

WAZ028-240310-
LOWER COLUMBIA BASIN...WASHINGTON

CITY            SKY/WX      TMP DP  RH  WIND    PRES   REMARKS
PASCO           PTCLDY      59  40  49  W13     29.80R
PROSSER AWOS    N/A         55  39  55  W10     29.83F
RICHLAND AWOS   PTCLDY      57  42  57  SW9     29.80S
#BENTON CITY    N/A         54  42  64  NW2     29.69F
#CONNELL 5N     N/A         54  42  64  SW10    29.76F
#CONNELL 5NW    N/A         54  41  61  SW13    29.72S
#ELTOPIA 6NW    N/A         54  41  61  W1      28.76S
#KAHLOTUS       N/A         51  41  68  N3      29.77R
#KENNEWICK 3S   N/A         56  44  64  CALM    29.79S
#PATERSON       N/A         56  40  55  N10     29.79R
#SAGEMOOR 2W    N/A         55  42  61  W7      29.65R
#TOUCHET 2S     N/A         56  46  69  SW3     29.76F
#WEST PASCO     N/A         59  41  51  W5      29.77S
$$

WAZ029-240310-
FOOTHILLS OF THE BLUES...WASHINGTON

CITY            SKY/WX      TMP DP  RH  WIND    PRES   REMARKS
WALLA WALLA AP  CLOUDY      53  44  71  S9      29.81R
#CLYDE 6NW      N/A         53  42  66  W22G32  29.78R
#DAYTON SCHOOL  N/A         56  35  45  SE2     29.82S
#LOWDEN 2SE     N/A         54  47  77  S2      29.76R
#PLEASANT VIEW 1N/A         53  41  64  SE16G25 29.81S
#PRESCOTT       N/A         53  45  74  CALM    29.78R
#WHITMAN COLLEGEN/A         51  45  80  E2      29.83S
#WAITSBURG 5S   N/A         47  42  83  S2      29.89R
#WAITSBURG 8N   N/A         63  N/A N/A S9      29.81S
#WALLA WALLA 5E N/A         51  44  77  SE18G26 N/A
#WHITMAN MISSIONN/A         54  46  74  CALM    29.80R
$$

WAZ030-240310-
BLUE MOUNTAINS...WASHINGTON

CITY            SKY/WX      TMP DP  RH  WIND    PRES   REMARKS
#DIXIE 5SE      N/A         41  37  86  W24G43  29.75R WCI 31
$$

ORZ009-041-WAZ024-240310-
COLUMBIA RIVER GORGE

CITY            SKY/WX      TMP DP  RH  WIND    PRES   REMARKS
HOOD RIVER AP   LGT RAIN    50  43  77  CALM    29.87R
THE DALLES AP   MOCLDY      54  43  66  NW17    29.84F
#ARLINGTON AIRPON/A         52  41  66  W14     29.82F
#CELILO DOT     N/A         56  37  49  SW8     N/A
#LYLE           N/A         53  45  74  W14     29.86F
#MOSIER 1S      N/A         49  35  58  CALM    29.82F
#MURDOCK        N/A         52  44  74  NW12    29.81S
#RUFUS DOT      N/A         56  39  53  W12     N/A
#SMITHVILLE     N/A         53  44  71  W13     29.79F

$$

ORZ510-240310-
NORTH CENTRAL OREGON

CITY            SKY/WX      TMP DP  RH  WIND    PRES   REMARKS
#ANTELOPE       N/A         49  37  63  W2      29.69F
#CHENOWITH 1W   N/A         45  42  89  W24     N/A    WCI 36
#COW CYN RST AREN/A         47  35  63  W7      N/A
#DUFUR          N/A         49  42  77  E5      29.79F
#DUFUR 9E       N/A         44  40  86  CALM    29.88F
#GRASS VALLEY 1SN/A         47  40  76  W3      29.98S
#KENT DOT       N/A         48  32  54  N14     N/A    WCI 42
#MAUPIN SCHOOL  N/A         55  41  59  W7      29.88F
#SHANIKO 5WSW   N/A         45  30  55  N8      N/A
#SHANIKO 4NW    N/A         44  36  73  W8      29.83F
#TYGH VALLEY 2NEN/A         52  40  63  N10     29.81S
#WAPANITIA AIRPON/A         49  38  66  W7      29.84F
#WASCO 5NE      N/A         49  39  68  W6      29.82F
$$

ORZ511-240310-
CENTRAL OREGON

CITY            SKY/WX      TMP DP  RH  WIND    PRES   REMARKS
BEND AIRPORT    MOCLDY      48  32  54  SW12    29.84F WCI 43
MADRAS AIRPORT  CLOUDY      48  32  54  S9      29.86S
PRINEVILLE AP   MOCLDY      46  36  68  W10     29.84F
REDMOND AIRPORT MOCLDY      49  32  52  W10     29.84S
#ASHWOOD SCHOOL N/A         51  36  56  SW6     29.81F
#BEND 1SW       N/A         46  35  65  SW1     N/A
#BEND-AWBREY    N/A         48  35  60  SW6     29.83S
#BEND-KIM LN    N/A         46  36  68  NE3     29.78F
#CULVER         N/A         48  35  60  SW5     29.76S
#CULVER 8W      N/A         49  36  61  SW3     29.88S
#LAKE BILLY CHINN/A         47  N/A N/A SW7     29.93S
#POWELL BUTTE 3EN/A         49  37  63  W9      N/A
#POWELL BUTTE   N/A         46  37  71  NW5     29.82F
#PRINEVILLE     N/A         48  36  63  W3      29.91F
#PRINEVILLE 3N  N/A         49  37  63  W10     29.82F
#WARM SPRINGS   N/A         53  36  52  CALM    29.80S

$$


ORZ509-240310-
EAST SLOPES OF OREGON CASCADES

CITY            SKY/WX      TMP DP  RH  WIND    PRES   REMARKS
SISTERS AWOS    N/A         45  36  70  SW12    29.84F WCI 39
#BLUE BOX PASS  N/A         36  N/A N/A NW3     N/A
#CAMP SHERMAN   N/A         43  37  79  CALM    29.94S
#LA PINE 4NW    N/A         42  33  70  CALM    29.91R
#LAVA BUTTE DOT N/A         42  31  65  SE2     N/A
#SISTERS 3N     N/A         44  31  60  W8      29.88S
#TUMALO 3W      N/A         45  35  68  NW5     29.72S
#WANOGA BUTTE D N/A         32  32  100 W8      N/A

$$

ORZ044-240310-
LOWER COLUMBIA BASIN...OREGON

CITY            SKY/WX      TMP DP  RH  WIND    PRES   REMARKS
HERMISTON       CLOUDY      57  41  55  W17     29.80R
#BOARDMAN SCHOOLN/A         56  41  57  W10     29.81R
#BOARDMAN 8SW   N/A         54  42  64  W9      29.80S
#ECHO 8SW       N/A         55  41  59  W5      29.83R
#I-84 EX 198 DOTN/A         56  41  57  E20     N/A
#IONE SCHOOL    N/A         52  33  48  W7      29.83S
#UMATILLA       N/A         58  39  49  W7      29.73R
$$

ORZ507-240310-
NORTHERN FOOTHILLS OF THE BLUES

CITY            SKY/WX      TMP DP  RH  WIND    PRES   REMARKS
PENDLETON AIRPT MOCLDY      55  43  64  CALM    29.80S
#ADAMS 3WNW     N/A         52  45  77  CALM    29.79S
#ATHENA         N/A         50  44  80  CALM    29.82R
#CAYUSE         N/A         52  45  77  CALM    29.78R
#HELIX SCHOOL   N/A         52  47  83  E2      29.79F
#HELIX 3N       N/A         49  44  83  SE2     29.78F
#HOLDMAN 5SE    N/A         53  44  71  W10     29.81R
#HOLDMAN 6E     N/A         49  48  96  CALM    29.59F
#M-F FERNDALE   N/A         54  42  64  CALM    29.78R
#M-F GROVE ELEM N/A         52  41  66  SW2     29.78R
#M-FREEWATER 5SEN/A         49  44  83  CALM    29.80R
#PENDLETON DNTN N/A         56  40  55  SW3     29.80S
#PDT AQUATIC CTRN/A         55  40  57  W2      29.82S
#PDT SUNRIDGE   N/A         53  45  74  CALM    29.82S
#PENDLETON 7NW  N/A         56  44  64  W14     32.29S
#PILOT ROCK 1S  N/A         53  41  64  CALM    29.81F
#PILOT ROCK     N/A         54  43  66  NW6     29.84R
#TUTUILLA       N/A         53  47  80  CALM    29.80S
#UMAPINE 2E     N/A         53  46  77  S2      29.77R
#WESTON SCHOOL  N/A         49  40  71  SE2     29.80R

$$

ORZ508-240310-
SOUTHERN FOOTHILLS OF THE BLUES

CITY            SKY/WX      TMP DP  RH  WIND    PRES   REMARKS
LEXINGTON       CLOUDY      52  43  71  W8      29.86R
#AJAX           N/A         46  36  68  S2      29.98F
#CONDON SCHOOL  N/A          0  -78  1  CALM    29.79F
#CONDON 5W      N/A         44  37  76  W7      29.79F
#HEPPNER EOC    N/A         47  43  86  W2      29.75R
#LEXINGTON 2SE  N/A         52  44  74  NW6     29.80S
#MIKKALO        N/A         49  38  66  NW9     29.93F
#OLEX 4N        N/A         51  43  74  W7      29.82S
#RUGGS 5NE      N/A         45  44  96  W3      30.01S
#RUGGS 2SW      N/A         46  41  83  NW3     29.83F

$$

ORZ502-503-240310-
BLUE MOUNTAINS

CITY            SKY/WX      TMP DP  RH  WIND    PRES   REMARKS
MEACHAM         PTCLDY      45  37  73  CALM    29.81S
#BATTLE MTN DOT N/A         39  35  85  S3      N/A
#GREENHORN 9SW  N/A         47  34  60  S5      26.01F
#HARDMAN 10S    N/A         42  36  79  W1      29.93F
#LADD CYN SMT   N/A         46  40  79  W3      N/A
#LADD CREEK ODOTN/A         48  27  44  CALM    N/A
#LONG CREEK HS  N/A         50  37  61  CALM    N/A
#N POWDER DOT   N/A         48  39  71  N10     N/A
#PIKES PEAK     N/A         40  37  89  N21G28  27.99S WCI 30
#TOLLGATE       N/A         34  32  92  CALM    29.70S
#TROY SCHOOL    N/A         54  44  69  CALM    29.63F
#UKIAH          N/A         44  38  79  W9      29.70F
#WESTON 4E      N/A         46  37  71  S1      29.77F
$$

ORZ505-240310-
JOHN DAY BASIN

CITY            SKY/WX      TMP DP  RH  WIND    PRES   REMARKS
JOHN DAY        PTCLDY      49  34  56  CALM    29.80F
#JOHN DAY KJDY  N/A         52  N/A N/A NW3     28.54R
#ANTELOPE 9ESE  N/A         55  38  53  W3      N/A
#DAYVILLE SCHOOLN/A         54  35  48  W7      29.78R
#MITCHELL       N/A         45  43  93  CALM    30.00R
#MITCHELL 8NW   N/A         46  35  65  W2      29.83S
#MONUMENT HS    N/A         57  34  42  VRB9    29.76S
#MT. VERNON 5SE N/A         49  33  54  W1      29.75F
#SPRAY SCHOOL   N/A         51  N/A N/A CALM    N/A
$$

ORZ506-240310-
OCHOCO AND JOHN DAY HIGHLANDS

CITY            SKY/WX      TMP DP  RH  WIND    PRES   REMARKS
#HORSE RIDGE DO N/A         46  31  56  SW9     N/A
#PAULINA SCHOOL N/A         49  32  52  W10     N/A
#PINE MTN OBS   N/A         33  30  89  S1      N/A
#SENECA 9NW     N/A         47  30  51  CALM    29.75S
$$

ORZ049-240310-
GRANDE RONDE VALLEY

CITY            SKY/WX      TMP DP  RH  WIND    PRES   REMARKS
LA GRANDE       PTCLDY      50  43  77  SW3     29.80F
#COVE SCHOOL    N/A         49  43  80  CALM    29.83F
#COVE 6NW       N/A         50  43  77  CALM    29.79F
#ELGIN 3N       N/A         51  40  66  CALM    29.79F
#ELGIN 1E       N/A         51  40  66  CALM    N/A
#IMBLER SCHOOL  N/A         47  42  83  CALM    29.78F
#ISLAND CITY 4N N/A         51  46  83  SW1     29.87F
#UNION 1S       N/A         51  41  68  CALM    29.78F
$$

ORZ050-240310-
WALLOWA COUNTY

CITY            SKY/WX      TMP DP  RH  WIND    PRES   REMARKS
JOSEPH AIRPORT  MOCLDY      43  37  79  SE5     29.82F
#IMNAHA SCHOOL  N/A         50  45  83  CALM    29.83F
#IMNAHA 10S     N/A         44  41  89  CALM    29.83R
#JOSEPH 3N      N/A         43  35  73  S1      29.86F
#JOSEPH 3W      N/A         40  40  100 CALM    29.68F
#LOSTINE        N/A         44  40  86  CALM    29.61F
#LOSTINE 3SE    N/A         44  40  86  CALM    29.85F
#MT HOWARD 8000 N/A         29  26  88  W7      29.80S
#PROMISE 1S     N/A         44  41  89  CALM    29.91F
#WALLOWA SCHOOL N/A         48  40  74  CALM    29.79F



$$



USA.gov is the U.S. government's official web portal to all federal, state and local government web resources and services.